Weather History for 11723 - October, 2013

Change the Weather History Date:

Wednesday, October 23, 2013

  Actual Average Record
Temperature  
Mean Temperature 60 °F -  
Max Temperature 66 °F 47 °F - ()
Min Temperature 54 °F 36 °F - ()
Degree Days  
Heating Degree Days 5    
Growing Degree Days 10 (Base 50)    
Moisture  
Dew Point 56 °F    
Average Humidity 83    
Maximum Humidity 94    
Minimum Humidity 65    
Precipitation  
Precipitation 0.00 in 0.05 in - ()
Sea Level Pressure  
Sea Level Pressure 29.96 in    
Wind  
Wind Speed 7 mph ()    
Max Wind Speed 14 mph    
Max Gust Speed -    
Visibility 6.4 miles    
Events Rain    
T = Trace of Precipitation, MM = Missing Value Source: Averaged Metar Reports

Daily Weather History Graph

Daily Weather History Graph

Search for Another Location

Airport or City:

Trip Planner

Search our weather history database for the weather conditions in past years. The results will help you decide how hot, cold, wet, or windy it might be!

Date:

Astronomy

Oct. 23, 2013 Rise Set
Actual Time 7:26 AM CEST 5:47 PM CEST
Civil Twilight 6:53 AM CEST 6:20 PM CEST
Nautical Twilight 6:16 AM CEST 6:57 PM CEST
Astronomical Twilight 5:40 AM CEST 7:34 PM CEST
Moon 8:49 PM CEST (10/23) 11:43 AM CEST (10/23)
Length of Visible Light 11h 26m
Length of Day
10h 21m
Waning Gibbous, 81% of the Moon is Illuminated
Oct 23
Waning Gibbous
Oct 27
Last Quarter
Nov 3
New
Nov 10
First Quarter
Nov 17
Full

Hourly Weather History & Observations

Time (CEST) Temp. Dew Point Humidity Pressure Visibility Wind Dir Wind Speed Gust Speed Precip Events Conditions
12:00 AM 55.4 °F 53.6 °F 94% 30.04 in 6.2 mi ENE 4.6 mph - N/A   Partly Cloudy
12:30 AM 57.2 °F 53.6 °F 88% 30.04 in 6.2 mi East 4.6 mph - N/A   Scattered Clouds
1:00 AM 55.4 °F 53.6 °F 94% 30.04 in - ESE 6.9 mph - N/A   Clear
1:30 AM 57.2 °F 53.6 °F 88% 30.01 in - ESE 8.1 mph - N/A   Clear
2:00 AM 57 °F 54 °F 85% 30.02 in 7 mi East 6.7 mph - -   Mostly Cloudy
2:00 AM 57.2 °F 53.6 °F 88% 30.01 in - East 6.9 mph - N/A   Clear
2:30 AM 57.2 °F 53.6 °F 88% 30.01 in - East 4.6 mph - N/A   Clear
3:00 AM 57.2 °F 53.6 °F 88% 30.01 in 6.2 mi ESE 6.9 mph - N/A   Scattered Clouds
3:30 AM 57.2 °F 55.4 °F 94% 29.98 in - ESE 9.2 mph - N/A   Clear
4:00 AM 59.0 °F 55.4 °F 88% 29.98 in - East 10.4 mph - N/A   Clear
4:30 AM 57.2 °F 55.4 °F 94% 29.98 in - ESE 8.1 mph - N/A   Clear
5:00 AM 55.4 °F 53.6 °F 94% 29.95 in 6.2 mi East 5.8 mph - N/A   Mostly Cloudy
5:30 AM 59.0 °F 55.4 °F 88% 29.98 in 6.2 mi ESE 5.8 mph - N/A   Overcast
6:00 AM 57.2 °F 55.4 °F 94% 29.98 in 6.2 mi NE 4.6 mph - N/A   Overcast
6:30 AM 57.2 °F 53.6 °F 88% 29.95 in 6.2 mi East 5.8 mph - N/A   Overcast
7:00 AM 59.0 °F 55.4 °F 88% 29.95 in 6.2 mi SE 8.1 mph - N/A   Overcast
7:30 AM 59.0 °F 55.4 °F 88% 29.95 in 5.0 mi ESE 10.4 mph - N/A   Overcast
8:00 AM 59 °F 56 °F 85% 29.95 in 5 mi ESE 8.9 mph - -   Mist
8:00 AM 59.0 °F 55.4 °F 88% 29.95 in 5.0 mi ESE 8.1 mph - N/A   Mostly Cloudy
8:30 AM 59.0 °F 55.4 °F 88% 29.95 in 5.0 mi SE 11.5 mph - N/A   Mostly Cloudy
9:00 AM 60.8 °F 57.2 °F 88% 29.95 in 4.3 mi ESE 8.1 mph - N/A   Mostly Cloudy
9:30 AM 60.8 °F 57.2 °F 88% 29.95 in 4.3 mi ESE 5.8 mph - N/A   Mostly Cloudy
10:00 AM 60.8 °F 57.2 °F 88% 29.95 in 5.0 mi SE 8.1 mph - N/A   Overcast
10:30 AM 60.8 °F 57.2 °F 88% 29.95 in 5.6 mi SE 8.1 mph - N/A   Overcast
11:00 AM 62.6 °F 57.2 °F 82% 29.95 in 6.2 mi SSE 8.1 mph - N/A   Overcast
11:30 AM 62.6 °F 57.2 °F 82% 29.95 in 6.2 mi SSE 12.7 mph - N/A   Overcast
12:00 PM 62.6 °F 57.2 °F 82% 29.95 in 6.2 mi SSE 10.4 mph - N/A   Overcast
12:30 PM 62.6 °F 57.2 °F 82% 29.95 in 6.2 mi South 5.8 mph - N/A   Mostly Cloudy
1:00 PM 64.4 °F 57.2 °F 77% 29.92 in 6.2 mi SE 10.4 mph - N/A   Mostly Cloudy
1:30 PM 66.2 °F 57.2 °F 73% 29.92 in 6.2 mi SE 13.8 mph - N/A   Mostly Cloudy
2:00 PM 65 °F 56 °F 65% 29.92 in 19 mi SE 13.4 mph - -   Mostly Cloudy
2:00 PM 64.4 °F 57.2 °F 77% 29.92 in 6.2 mi SE 12.7 mph - N/A   Mostly Cloudy
2:30 PM 66.2 °F 57.2 °F 73% 29.92 in 6.2 mi SE 11.5 mph - N/A   Mostly Cloudy
3:00 PM 66.2 °F 57.2 °F 73% 29.92 in 6.2 mi SE 11.5 mph - N/A   Mostly Cloudy
3:30 PM 66.2 °F 57.2 °F 73% 29.92 in 6.2 mi SE 10.4 mph - N/A   Mostly Cloudy
4:00 PM 66.2 °F 57.2 °F 73% 29.92 in 6.2 mi SE 6.9 mph - N/A   Scattered Clouds
4:30 PM 66.2 °F 57.2 °F 73% 29.92 in 6.2 mi Variable 2.3 mph - N/A   Scattered Clouds
5:00 PM 66.2 °F 57.2 °F 73% 29.92 in 6.2 mi ESE 3.5 mph - N/A   Partly Cloudy
5:30 PM 64.4 °F 57.2 °F 77% 29.92 in 6.2 mi East 3.5 mph - N/A   Partly Cloudy
6:00 PM 64.4 °F 57.2 °F 77% 29.92 in 6.2 mi ENE 4.6 mph - N/A   Partly Cloudy
6:30 PM 62.6 °F 55.4 °F 77% 29.92 in 6.2 mi NE 4.6 mph - N/A   Partly Cloudy
7:00 PM 62.6 °F 55.4 °F 77% 29.92 in 6.2 mi NNE 4.6 mph - N/A   Partly Cloudy
7:30 PM 60.8 °F 55.4 °F 82% 29.95 in 6.2 mi WNW 9.2 mph - N/A   Partly Cloudy
8:00 PM 63 °F 56 °F 70% 29.94 in 11 mi North 6.7 mph - -   Scattered Clouds
8:00 PM 62.6 °F 55.4 °F 77% 29.95 in 6.2 mi North 6.9 mph - N/A   Partly Cloudy
8:30 PM 62.6 °F 55.4 °F 77% 29.95 in 6.2 mi North 4.6 mph - N/A   Partly Cloudy
9:00 PM 60.8 °F 57.2 °F 88% 29.95 in 6.2 mi WNW 10.4 mph - N/A   Partly Cloudy
9:30 PM 60.8 °F 55.4 °F 82% 29.98 in 6.2 mi NNW 4.6 mph - N/A   Partly Cloudy
10:00 PM 60.8 °F 55.4 °F 82% 29.95 in 6.2 mi North 4.6 mph - N/A   Partly Cloudy
10:30 PM 59.0 °F 55.4 °F 88% 29.98 in 6.2 mi WSW 2.3 mph - N/A   Partly Cloudy
11:00 PM 59.0 °F 55.4 °F 88% 29.98 in 6.2 mi Variable 1.2 mph - N/A Rain Light Rain
11:30 PM 59.0 °F 55.4 °F 88% 29.98 in 6.2 mi ENE 4.6 mph - N/A Rain Light Rain